Location: Riverside Cemetery
(38.3047°N, 99.7773°W)
Time: 10:35:01
(UTC+00:00)

Lacrosse 5 - Pass Details

Date: 19 September 2020
Orbit: 716 x 723 km, 57.0° (Epoch: 23 October)

Event Time Altitude Azimuth Distance (km) Brightness Sun altitude
Exits shadow 11:23:43 - 302° (WNW) 2,303 4.1 -12.7°
Reaches altitude 10° 11:24:13 10° 306° (NW) 2,202 4.0 -12.6°
Maximum altitude 11:26:51 14° 338° (NNW) 1,939 4.0 -12.1°
Drops below altitude 10° 11:29:30 10° 10° (N) 2,207 4.7 -11.6°
Sets 11:33:05 0° 35° (NE) 3,131 5.9 -10.9°
